Flag for U.S.A. Weather past 2 weeks in Madison, Wisconsin, U.S.A.

Now
85 °F

Scattered clouds.


Feels Like: 92 °F
Forecast: 72 / 91 °F
Wind: 8 mph from Southwest

Location: Dane County Regional-Truax Field

Current Time: Jul 22, 2014 at 3:20:12 PM

Latest Report: Jul 22, 2014 at 11:57 AM


Visibility: 10 mi

Pressure: 29.93 "Hg

Humidity: 68%

Dew point: 73 °F

Location of MadisonLocation

Historic Weather in Madison — Graph

°F

Madison temperature yesterday

Maximum temperature yesterday: 86 °F (at 2:53 PM)
Minimum temperature yesterday: 66 °F (at 5:53 AM)
Average temperature yesterday: 77 °F

Past Weeks' High & Low Weather Summary

 TemperatureHumidityPressure
High86 °F (Jul 21, 2:53 PM)96% (Jul 17, 2:53 AM)30.17 "Hg (Jul 17, 2:53 AM)
Low49 °F (Jul 16, 5:53 AM)36% (Jul 17, 1:53 PM)29.60 "Hg (Jul 8, 2:53 AM)
Average70 °F67%29.97 "Hg
* Reported Jul 7 11:53 AM — Jul 22 11:57 AM, Madison, Weather by CustomWeather, © 2014

Note: Actual official high and low records may vary slightly from our data, if they occured in-between our weather recording intervals... More about our weather records

Advertising

Madison weather history for previous 24 hours

 ConditionsComfort  
Time TempWeatherWind HumidityBarometerVisibility
11:57 AM
Jul 22
85 °FScattered clouds.8 mph68%29.93 "Hg10 mi
10:53 AM83 °FPartly sunny.9 mph68%29.93 "Hg10 mi
9:53 AM82 °FPassing clouds.10 mph65%29.92 "Hg10 mi
8:53 AM79 °FScattered clouds.15 mph69%29.91 "Hg9 mi
7:53 AM76 °FBroken clouds.10 mph74%29.93 "Hg7 mi
6:53 AM75 °FPartly sunny.10 mph74%29.93 "Hg7 mi
5:53 AM74 °FPassing clouds.17 mph79%29.93 "Hg7 mi
4:53 AM74 °FClear.13 mph79%29.95 "Hg8 mi
3:53 AM75 °FClear.12 mph79%29.96 "Hg8 mi
2:53 AM74 °FClear.9 mph82%29.97 "Hg8 mi
1:53 AM75 °FPassing clouds.9 mph79%29.98 "Hg9 mi
12:53 AM76 °FPassing clouds.13 mph77%29.98 "Hg10 mi
11:53 PM
Jul 21
76 °FPassing clouds.10 mph77%29.99 "Hg10 mi
10:53 PM78 °FClear.12 mph71%29.99 "Hg10 mi
9:53 PM79 °FPassing clouds.12 mph69%29.99 "Hg10 mi
8:53 PM80 °FSunny.12 mph67%29.99 "Hg10 mi
7:53 PM83 °FPassing clouds.13 mph61%29.98 "Hg10 mi
6:53 PM84 °FPassing clouds.13 mph57%30.00 "Hg10 mi
5:53 PM86 °FPassing clouds.15 mph53%30.00 "Hg10 mi
4:53 PM86 °FScattered clouds.17 mph51%30.00 "Hg10 mi
3:53 PM86 °FScattered clouds.14 mph51%30.00 "Hg10 mi
Weather by CustomWeather, © 2014

See weather overviewHow to use our weather pages